Location: Chervonnoye
(48.6000°N, 34.4000°E)
Time: 20:27:15
(UTC+00:00)

RS-44 - Pass Details

Date: 07 December 2021
Orbit: 1175 x 1510 km, 82.5° (Epoch: 19 January)

Event Time Altitude Azimuth Distance (km) Brightness Sun altitude
Rises 19:24:24 0° 259° (WSW) 4,065 ? -53.6°
Reaches altitude 10° 19:29:17 10° 288° (WNW) 3,100 ? -54.2°
Maximum altitude 19:31:58 12° 311° (NW) 2,941 ? -54.6°
Enters shadow 19:32:00 12° 311° (NW) 2,942 ? -54.6°
Exits shadow 19:36:08 - 344° (NNW) 3,344 ? -55.1°
Sets 19:39:42 0° 3° (N) 4,135 ? -55.6°
